ETSA Airport Information

Runway Information
Runway 07 Length 6777 ft width 98 ft
Elevation 2035 ft Threshold 0 ft Heading 72
Runway 25 Length 6777 ft Width 98 ft
Elevation 2043 ft Threshold 0 ft Heading 252
Airport Frequencies
Type ACC Name MUNCHEN CO Frequency 129.45 MHZ
Type OPS Name WING OPS Frequency 142.85 MHZ
Type RDR Name RADAR Frequency 34.4 MHZ
Type RDR Name RADAR Frequency 123.3 MHZ
Type TWR Name TWR Frequency 122.1 MHZ
Airport Navaids
Type TACAN Name Landsberg Frequency 112150 KHZ
Type NDB Name Landsberg Frequency 448 KHZ
Airport Weather Information & NOTAM
ADDS - METARS form results

(0845 UTC 20 April 2018)
 
METAR text: ETSA 200820Z AUTO 25002KT 9999 // ////// 17/07 Q1025 ///
Conditions at: ETSA (LANDSBERG (GER-A, DE) observed 0820 UTC 20 April 2018
Temperature: 17.0°C (63°F)
Dewpoint: 7.0°C (45°F) [RH = 52%]
Pressure (altimeter): 30.27 inches Hg (1025.0 mb)
Winds: from the WSW (250 degrees) at 2 MPH (2 knots; 1.0 m/s)
Visibility: 6 or more miles (10+ km)
Ceiling: unknown
Clouds: missing
Weather: no significant weather observed at this time